Location: Newark
(26.8229°N, 81.7649°W)
Time: 21:16:15
(UTC+00:00)

LightSail 2 - Visible Passes

Search period start: 19 January 2020 00:00
Search period end: 29 January 2020 00:00
Orbit: 703 x 720 km, 24.0° (Epoch: 19 January)

Date Brightness Start Highest point End Pass type
(mag) Time Alt. Az. Time Alt. Az. Time Alt. Az.
19 Jan 6.6 01:26:03 10° WSW 01:29:05 35° WSW 01:29:05 35° WSW visible
20 Jan 5.4 00:27:41 10° WSW 00:32:46 59° S 00:34:19 41° ESE visible
20 Jan 8.2 02:13:03 10° W 02:13:16 11° W 02:13:16 11° W visible
20 Jan 5.7 23:29:21 10° WSW 23:34:22 52° S 23:39:25 10° E visible
21 Jan 6.0 01:14:37 10° W 01:18:30 48° WSW 01:18:30 48° WSW visible
22 Jan 5.3 00:16:12 10° W 00:21:20 64° S 00:23:44 31° ESE visible
22 Jan 7.8 02:01:40 10° W 02:02:41 16° W 02:02:41 16° W visible
22 Jan 5.6 23:17:47 10° WSW 23:22:53 61° S 23:28:00 10° E visible
23 Jan 5.5 01:03:11 10° W 01:07:56 57° SSW 01:07:56 57° SSW visible
24 Jan 5.4 00:04:43 10° W 00:09:51 63° S 00:13:13 21° ESE visible
24 Jan 7.4 01:50:19 10° W 01:52:10 21° WSW 01:52:10 21° WSW visible
25 Jan 5.7 00:51:46 10° W 00:56:45 48° S 00:57:29 45° SSE visible
25 Jan 5.7 23:53:14 10° W 23:58:18 56° S 00:02:51 13° ESE visible
26 Jan 7.1 01:39:04 10° WSW 01:41:48 24° SW 01:41:48 24° SW visible
27 Jan 6.3 00:40:23 10° W 00:45:07 36° SSW 00:47:14 26° SSE visible
27 Jan 6.1 23:41:47 10° W 23:46:40 44° SSW 23:51:35 10° ESE visible
28 Jan 7.2 01:28:07 10° WSW 01:31:41 20° SSW 01:31:41 20° SSW visible
